COSMOS 2361 1 25590U 98076A 22176.83706446 .00000066 00000-0 55036-4 0 9992 2 25590 82.9335 199.9570 0031475 182.5600 350.1727 13.73022062177685 COSMOS 2378 1 26818U 01023A 22177.06531055 .00000005 00000-0 -11497-4 0 9997 2 26818 82.9286 217.8116 0034081 129.1243 231.2957 13.73971233 55497 COSMOS 2389 1 27436U 02026A 22176.94651536 .00000050 00000-0 36218-4 0 9998 2 27436 82.9499 163.7121 0046267 353.9279 63.1076 13.74976911 7535 COSMOS 2398 1 27818U 03023A 22177.09202575 .00000074 00000-0 64308-4 0 9999 2 27818 82.9486 125.2357 0032390 29.8953 330.4030 13.72212426954576 COSMOS 2407 1 28380U 04028A 22177.11939846 .00000012 00000-0 -36670-5 0 9996 2 28380 82.9622 70.0136 0039421 355.4382 164.2455 13.76115308900346 COSMOS 2414 1 28521U 05002A 22176.75809520 .00000056 00000-0 33724-4 0 9993 2 28521 82.9511 61.9589 0040681 148.3781 211.9831 13.87659358882700 COSMOS 2429 1 32052U 07038A 22176.81468828 .00000061 00000-0 48583-4 0 9992 2 32052 82.9798 196.1472 0037710 332.9257 26.9931 13.74963158742051 COSMOS 2454 1 35635U 09039A 22176.72193175 .00000057 00000-0 33626-4 0 9992 2 35635 82.9575 48.3177 0020695 93.4175 266.9352 13.89688540655844 COSMOS 2463 1 36519U 10017A 22176.91983833 .00000048 00000-0 36329-4 0 9994 2 36519 82.9605 236.5798 0035841 197.2228 336.4335 13.71476126608850